EW5448 Weather Reports


Display with metric or nautical units.
time (UTC)temp
F
wind
direction
speed
MPH
gust
MPH
rain 1hr
in
rain 24hr
in
rain mn
in
humidity
%
barometer
mb
20260510071547 83 259 0.0 1.0 0.00 0.00 0.00 16 991.6
20260510070043 86 225 1.0 5.0 0.00 0.00 0.00 14 991.4
20260510064544 89 134 2.0 6.0 0.00 0.00 0.00 13 991.2
20260510063040 89 123 0.0 4.0 0.00 0.00 0.00 14 991.2
20260510061540 89 152 2.0 5.0 0.00 0.00 0.00 14 991.1
20260510060048 88 136 2.0 5.0 0.00 0.00 0.00 15 991.0
20260510054539 89 157 2.0 5.0 0.00 0.00 0.00 15 990.9
20260510053038 90 117 2.0 5.0 0.00 0.00 0.00 13 990.9
20260510051550 90 146 3.0 6.0 0.00 0.00 0.00 13 990.9
20260510050042 90 112 1.0 4.0 0.00 0.00 0.00 13 990.8
20260510044538 91 123 0.0 5.0 0.00 0.00 0.00 13 990.7
20260510043049 92 87 1.0 4.0 0.00 0.00 0.00 14 990.6
20260510041536 92 138 0.0 2.0 0.00 0.00 0.00 14 990.4
20260510040036 92 140 0.0 2.0 0.00 0.00 0.00 16 990.2
20260510034537 93 148 0.0 2.0 0.00 0.00 0.00 16 990.0
20260510033039 94 157 0.0 4.0 0.00 0.00 0.00 15 989.7
20260510031602 95 251 0.0 5.0 0.00 0.00 0.00 14 989.5
20260510030037 96 114 3.0 6.0 0.00 0.00 0.00 14 989.2
20260510024536 97 163 1.0 6.0 0.00 0.00 0.00 13 989.1
20260510023043 99 178 2.0 7.0 0.00 0.00 0.00 13 989.0
20260510021534 102 184 1.0 7.0 0.00 0.00 0.00 12 988.8
20260510020031 103 187 2.0 8.0 0.00 0.00 0.00 11 988.8
20260510014532 104 176 4.0 8.0 0.00 0.00 0.00 10 988.6
20260510013029 104 132 5.0 8.0 0.00 0.00 0.00 10 988.6
20260510011529 105 171 5.0 14.0 0.00 0.00 0.00 11 988.7
20260510010029 105 163 1.0 10.0 0.00 0.00 0.00 10 988.6
20260510004527 105 143 6.0 13.0 0.00 0.00 0.00 10 988.7
20260510003026 106 171 5.0 10.0 0.00 0.00 0.00 9 988.7
20260510001525 106 119 7.0 12.0 0.00 0.00 0.00 9 988.8
20260510000024 106 109 7.0 12.0 0.00 0.00 0.00 10 988.8
20260509234524 105 143 8.0 13.0 0.00 0.00 0.00 10 988.8
20260509233021 106 145 5.0 11.0 0.00 0.00 0.00 10 988.9
20260509231519 105 238 4.0 14.0 0.00 0.00 0.00 11 989.1
20260509230016 106 170 3.0 8.0 0.00 0.00 0.00 10 989.2
20260509224514 106 111 5.0 13.0 0.00 0.00 0.00 10 989.5
20260509223012 107 151 6.0 12.0 0.00 0.00 0.00 10 989.7
20260509221511 106 151 3.0 10.0 0.00 0.00 0.00 10 989.9
20260509220009 107 193 7.0 13.0 0.00 0.00 0.00 10 990.3
20260509214504 105 261 1.0 9.0 0.00 0.00 0.00 11 990.6
20260509213003 106 277 7.0 12.0 0.00 0.00 0.00 10 990.9
20260509211502 105 115 1.0 8.0 0.00 0.00 0.00 10 991.0
20260509204603 105 107 2.0 4.0 0.00 0.00 0.00 8 991.5
20260509203100 105 238 0.0 5.0 0.00 0.00 0.00 11 991.7
20260509201553 104 108 0.0 6.0 0.00 0.00 0.00 10 992.0
20260509200050 104 238 2.0 7.0 0.00 0.00 0.00 13 992.2
20260509194548 103 161 4.0 13.0 0.00 0.00 0.00 13 992.4
20260509193047 102 111 1.0 5.0 0.00 0.00 0.00 15 992.7
20260509191545 101 141 1.0 8.0 0.00 0.00 0.00 15 992.9
20260509190047 99 323 1.0 8.0 0.00 0.00 0.00 16 993.1
20260509184539 98 150 1.0 5.0 0.00 0.00 0.00 16 993.2
20260509183039 97 291 0.0 8.0 0.00 0.00 0.00 17 993.4
20260509181537 97 244 2.0 8.0 0.00 0.00 0.00 17 993.5
20260509180036 96 259 0.0 6.0 0.00 0.00 0.00 17 993.6
20260509174536 96 109 0.0 5.0 0.00 0.00 0.00 15 993.8
20260509173032 95 185 0.0 4.0 0.00 0.00 0.00 16 993.9
20260509171530 94 113 1.0 5.0 0.00 0.00 0.00 16 994.0
20260509170030 93 215 1.0 5.0 0.00 0.00 0.00 18 994.1
20260509164523 91 158 0.0 3.0 0.00 0.00 0.00 19 994.1
20260509163023 89 113 0.0 2.0 0.00 0.00 0.00 17 994.1
20260509161521 88 263 0.0 4.0 0.00 0.00 0.00 18 994.2
20260509160020 90 149 0.0 0.0 0.00 0.00 0.00 16 994.2
20260509154518 87 150 0.0 1.0 0.00 0.00 0.00 17 994.2
20260509153020 86 229 0.0 2.0 0.00 0.00 0.00 18 994.2
20260509151516 85 9 0.0 1.0 0.00 0.00 0.00 19 994.3
20260509150015 86 227 0.0 0.0 0.00 0.00 0.00 18 994.3
20260509144514 83 78 0.0 1.0 0.00 0.00 0.00 19 994.2
20260509143013 80 86 0.0 1.0 0.00 0.00 0.00 21 994.1
20260509141514 79 86 0.0 1.0 0.00 0.00 0.00 24 994.0
20260509140010 78 86 0.0 1.0 0.00 0.00 0.00 23 993.8
20260509134508 75 86 0.0 2.0 0.00 0.00 0.00 24 993.7
20260509133007 74 92 0.0 2.0 0.00 0.00 0.00 25 993.5
20260509131504 73 168 0.0 0.0 0.00 0.00 0.00 26 993.2
20260509130005 72 168 0.0 0.0 0.00 0.00 0.00 26 993.0
20260509124613 71 148 0.0 1.0 0.00 0.00 0.00 26 992.9
20260509123058 72 207 1.0 4.0 0.00 0.00 0.00 26 992.8
20260509121554 73 150 1.0 5.0 0.00 0.00 0.00 25 992.6
20260509120051 74 157 1.0 5.0 0.00 0.00 0.00 24 992.4
20260509114555 76 209 2.0 7.0 0.00 0.00 0.00 23 992.2
20260509113047 77 167 3.0 9.0 0.00 0.00 0.00 24 992.2
20260509111546 78 151 2.0 6.0 0.00 0.00 0.00 25 992.1
20260509110048 78 142 3.0 6.0 0.00 0.00 0.00 26 992.1
20260509104544 76 337 0.0 1.0 0.00 0.00 0.00 24 992.0
20260509103042 76 332 0.0 2.0 0.00 0.00 0.00 26 992.0
20260509101540 77 149 0.0 2.0 0.00 0.00 0.00 26 992.0
20260509100039 78 294 0.0 2.0 0.00 0.00 0.00 24 992.0
20260509094537 79 309 0.0 5.0 0.00 0.00 0.00 22 991.9
20260509093031 83 111 1.0 6.0 0.00 0.00 0.00 19 991.8
20260509091534 83 101 2.0 4.0 0.00 0.00 0.00 18 991.9
20260509090027 84 114 0.0 4.0 0.00 0.00 0.00 18 991.9
20260509084528 85 105 3.0 6.0 0.00 0.00 0.00 17 991.9
20260509083024 86 93 2.0 5.0 0.00 0.00 0.00 17 991.9
20260509081522 86 80 1.0 2.0 0.00 0.00 0.00 17 992.0
20260509080025 86 136 1.0 6.0 0.00 0.00 0.00 19 992.0
20260509074520 85 126 2.0 5.0 0.00 0.00 0.00 18 992.0
20260509073036 86 92 1.0 3.0 0.00 0.00 0.00 17 991.9